This demonstration page uses our WeatherBlox Daily Observations layout. Learn more.

Left ArrowRight Arrow

53.62937, 11.41316

Hourly Observations for April 25, 2015

Temp ( °F °C ) Dew Point ( °F °C ) Humidity (%) Winds ( mph kmh ) Pressure ( in mb ) Visibility ( mi km ) Precip ( " mm )
6:20 am 06:20 Mostly Cloudy 54 12 39 4 58 58 SSE 7 11 29.74 1007 30 48 N/A
6:50 am 06:50 Mostly Sunny 54 12 39 4 58 58 S 9 15 29.74 1007 7 11 N/A
7:20 am 07:20 Mostly Sunny 55 13 39 4 55 55 S 9 15 29.74 1007 7 11 N/A
7:50 am 07:50 Mostly Sunny 55 13 39 4 55 55 S 9 15 29.74 1007 7 11 N/A
8:20 am 08:20 Mostly Sunny 57 14 41 5 55 55 S 9 15 29.74 1007 7 11 N/A
8:50 am 08:50 Mostly Sunny 57 14 41 5 55 55 SSW 10 17 29.74 1007 7 11 N/A
9:20 am 09:20 Mostly Sunny 57 14 41 5 55 55 SSW 10 17 29.74 1007 7 11 N/A
9:50 am 09:50 Mostly Cloudy with Light Rain 54 12 46 8 77 77 SSW 12 19 29.74 1007 4 6 N/A
10:20 am 10:20 Mostly Cloudy with Light Rain 55 13 46 8 72 72 SSW 8 13 29.77 1008 30 48 N/A
10:50 am 10:50 Mostly Cloudy with Light Rain 54 12 50 10 88 88 VRB 2 4 29.74 1007 30 48 N/A
11:20 am 11:20 Mostly Cloudy 55 13 50 10 82 82 S 5 7 29.74 1007 30 48 N/A
11:50 am 11:50 Cloudy with Light Rain 55 13 50 10 82 82 SSE 6 9 29.74 1007 6 9 N/A
12:20 pm 12:20 Mostly Sunny 59 15 50 10 72 72 S 5 7 29.74 1007 6 9 N/A
12:50 pm 12:50 Mostly Sunny 61 16 50 10 68 68 S 6 9 29.74 1007 30 48 N/A
1:20 pm 13:20 Mostly Sunny 63 17 50 10 64 64 S 8 13 29.71 1006 7 11 N/A
1:50 pm 13:50 Mostly Cloudy 64 18 52 11 64 64 SSW 9 15 29.71 1006 30 48 N/A
2:20 pm 14:20 Mostly Sunny 64 18 50 10 60 60 SSW 9 15 29.71 1006 7 11 N/A
2:50 pm 14:50 Cloudy 64 18 52 11 64 64 WSW 13 20 29.71 1006 6 9 N/A
3:20 pm 15:20 Mostly Cloudy with Showers 57 14 54 12 88 88 W 17 28 29.71 1006 2 3 N/A
3:50 pm 15:50 Mostly Cloudy 59 15 55 13 88 88 WSW 3 6 29.71 1006 5 8 N/A
4:20 pm 16:20 Mostly Cloudy 59 15 55 13 88 88 WSW 5 7 29.71 1006 4 7 N/A
4:50 pm 16:50 Partly Cloudy 61 16 54 12 77 77 WSW 9 15 29.68 1005 6 9 N/A
5:20 pm 17:20 Cloudy with Light Rain 59 15 52 11 77 77 WSW 12 19 29.71 1006 5 8 N/A
5:50 pm 17:50 Mostly Cloudy with Light Rain 57 14 52 11 82 82 WSW 12 19 29.71 1006 4 7 N/A
6:20 pm 18:20 Mostly Cloudy with Light Rain 55 13 54 12 94 94 WSW 10 17 29.71 1006 3 5 N/A
6:50 pm 18:50 Mostly Cloudy with Light Rain 54 12 52 11 94 94 WSW 13 20 29.71 1006 5 8 N/A

Powered by AerisWeather